User: anonymous   Login
Location: Unspecified
(0.0000°N, 0.0000°E)
Time: 20:19:26
(UTC+00:00)
Language:

SBIRS GEO 1 (USA 230) - Orbit

View from above orbital plane
View from above orbital plane
View from above satellite
View from above satellite

Ground track
Ground track

The orbit is defined by the following mean orbital elements,

1 37481U          26145.23757896 +.00000000 +00000-0 +00000-0 0 00001
2 37481   4.4866  53.1296 0002190   3.0317 323.9988  1.00272123    05
Epoch (UTC): 25 May 2026 05:42:06
Eccentricity: 0.0002190
inclination: 4.4866°
perigee height: 35777 km
apogee height: 35796 km
right ascension of ascending node: 53.1296°
argument of perigee: 3.0317°
revolutions per day: 1.00272123
mean anomaly at epoch: 323.9988°

The dashed part of the orbit path shows where the satellite is in the earth's shadow,  

DLR